Location: Humble ISD Astronomical Observatory
(29.9680°N, 95.2620°W)
Time: 13:18:14
(UTC-05:00)

Tiangong 2 - Pass Details

Date: 22 March 2019
Orbit: 378 x 390 km, 42.8° (Epoch: 25 April)

Event Time Altitude Azimuth Distance (km) Brightness Sun altitude
Exits shadow 05:52:40 18° 352° (N) 1,039 3.3 -20.2°
Maximum altitude 05:53:51 21° 24° (NNE) 912 3.3 -19.9°
Drops below altitude 10° 05:56:22 10° 77° (ENE) 1,401 5.1 -19.4°
Sets 05:58:45 0° 93° (E) 2,255 6.4 -18.9°
